This demonstration page uses our WeatherBlox Daily Observations layout. Learn more.

Hourly Observations for August 7, 2017

Temp ( °F °C ) Dew Point ( °F °C ) Humidity (%) Winds ( mph kmh ) Pressure ( in mb ) Visibility ( mi km ) Precip ( " mm )
12:15 am 00:15 Clear 62 16.5 60 15.3 93 93 SSW 3 6 30.06 1018 7 11.265408 0 0
12:35 am 00:35 Clear with Mist and Fog 60 15.8 59 15 95 95 Calm 30.06 1018 5 8.04672 0 0
12:55 am 00:55 Clear 61 16.3 60 15.5 95 95 S 5 7 30.06 1018 7 11.265408 0 0
1:15 am 01:15 Partly Cloudy 61 16.3 59 15.1 93 93 Calm 30.06 1018 7 11.265408 0 0
1:35 am 01:35 Partly Cloudy with Mist and Fog 60 15.7 59 14.8 94 94 Calm 30.06 1018 5 8.04672 0 0
1:55 am 01:55 Clear with Mist and Fog 60 15.7 59 15 96 96 NE 5 7 30.06 1018 5 8.04672 0 0
2:15 am 02:15 Clear with Mist and Fog 60 15.7 59 15 96 96 Calm 30.09 1019 5 8.04672 0 0
2:35 am 02:35 Mostly Cloudy with Light Drizzle 61 16 60 15.3 96 96 Calm 30.09 1019 5 8.04672 0 0
2:55 am 02:55 Cloudy with Light Rain 61 16 60 15.3 96 96 W 3 6 30.09 1019 4 6.437376 0 0
3:15 am 03:15 Cloudy with Light Rain 61 16.3 60 15.6 96 96 Calm 30.09 1019 4 6.437376 0.01 0.254
3:35 am 03:35 Cloudy with Light Rain 62 16.5 60 15.8 96 96 NW 3 6 30.09 1019 5 8.04672 0.01 0.254
3:55 am 03:55 Cloudy with Light Rain 61 16.2 60 15.5 96 96 W 3 6 30.09 1019 4 6.437376 0.02 0.508
4:15 am 04:15 Cloudy with Light Rain 62 16.5 60 15.8 96 96 Calm 30.09 1019 5 8.04672 0 0
4:35 am 04:35 Cloudy with Light Drizzle 62 16.5 60 15.8 96 96 Calm 30.09 1019 5 8.04672 0 0
4:55 am 04:55 Mostly Cloudy with Light Drizzle 61 16.3 60 15.6 96 96 Calm 30.09 1019 3 4.828032 0 0
5:15 am 05:15 Partly Cloudy with Mist and Fog 61 16.1 60 15.4 96 96 Calm 30.09 1019 3 4.828032 0 0
5:35 am 05:35 Partly Cloudy with Mist and Fog 61 16 60 15.3 96 96 Calm 30.09 1019 3 4.828032 0.01 0.254
5:55 am 05:55 Clear with Mist and Fog 61 16 60 15.4 96 96 Calm 30.09 1019 3 4.828032 0.01 0.254
6:15 am 06:15 Partly Cloudy with Mist and Fog 60 15.8 59 15.2 96 96 Calm 30.09 1019 2.5 4.02336 0 0
6:35 am 06:35 Mostly Cloudy 60 15.8 59 15.2 96 96 Calm 30.09 1019 3 4.828032 0 0
6:55 am 06:55 Sunny with Mist and Fog 60 15.8 59 15.2 96 96 N 3 6 30.09 1019 3 4.828032 0 0
7:15 am 07:15 Partly Cloudy with Mist and Fog 60 15.8 59 15.2 96 96 N 5 7 30.09 1019 2 3.218688 0 0
7:35 am 07:35 Mostly Cloudy with Mist and Fog 61 16 60 15.3 96 96 N 6 9 30.09 1019 2 3.218688 0 0
7:55 am 07:55 Sunny with Mist and Fog 61 16.1 60 15.5 96 96 N 5 7 30.09 1019 2 3.218688 0 0
8:15 am 08:15 Partly Cloudy with Mist and Fog 62 16.5 61 16 97 97 N 5 7 30.09 1019 2 3.218688 0 0
8:35 am 08:35 Partly Cloudy with Mist and Fog 63 17.1 62 16.5 96 96 NNE 7 11 30.09 1019 3 4.828032 0 0
8:55 am 08:55 Partly Cloudy with Mist and Fog 64 17.5 62 16.6 95 95 N 7 11 30.09 1019 5 8.04672 0 0
9:15 am 09:15 Partly Cloudy 65 18.1 62 16.4 90 90 N 8 13 30.09 1019 7 11.265408 0 0
9:35 am 09:35 Mostly Cloudy 66 18.8 62 16.6 87 87 N 6 9 30.09 1019 7 11.265408 0 0
9:55 am 09:55 Cloudy 65 18.6 62 16.5 88 88 N 8 13 30.09 1019 7 11.265408 0 0
10:15 am 10:15 Cloudy 66 19 61 16.1 83 83 NNE 10 17 30.09 1019 10 16.09344 0 0
10:35 am 10:35 Cloudy 66 19 61 16.1 83 83 NNE 8 13 30.09 1019 10 16.09344 0 0
10:55 am 10:55 Cloudy 67 19.7 61 16.2 80 80 NNE 5 7 30.12 1020 10 16.09344 0 0
11:15 am 11:15 Cloudy 68 20.1 62 16.4 79 79 NNE 6 9 30.12 1020 10 16.09344 0 0
11:35 am 11:35 Cloudy 69 20.3 61 16 76 76 NE 7 11 30.12 1020 10 16.09344 0 0
11:55 am 11:55 Cloudy 69 20.5 61 16.2 76 76 NNE 5 7 30.12 1020 10 16.09344 0 0
12:15 pm 12:15 Mostly Cloudy 70 21.2 62 16.4 74 74 NE 5 7 30.12 1020 10 16.09344 0 0
12:35 pm 12:35 Cloudy 69 20.8 60 15.5 72 72 NNE 8 13 30.12 1020 10 16.09344 0 0
12:55 pm 12:55 Mostly Cloudy 71 21.5 60 15.6 69 69 NE 7 11 30.09 1019 10 16.09344 0 0
1:15 pm 13:15 Cloudy 70 21.3 61 16 72 72 ENE 9 15 30.09 1019 10 16.09344 0 0
1:35 pm 13:35 Mostly Cloudy 69 20.8 60 15.4 71 71 ENE 6 9 30.12 1020 10 16.09344 0 0
1:55 pm 13:55 Mostly Cloudy 72 22.1 58 14.7 63 63 ENE 8 13 30.09 1019 10 16.09344 0 0
2:15 pm 14:15 Mostly Cloudy 71 21.7 60 15.6 68 68 ENE 6 9 30.09 1019 10 16.09344 0 0
2:35 pm 14:35 Mostly Cloudy 73 22.7 59 15 62 62 ENE 8 13 30.09 1019 10 16.09344 0 0
2:55 pm 14:55 Partly Cloudy 74 23.1 58 14.3 58 58 ENE 6 9 30.09 1019 10 16.09344 0 0
3:15 pm 15:15 Mostly Cloudy 74 23.5 57 13.7 54 54 NE 6 9 30.06 1018 10 16.09344 0 0
3:35 pm 15:35 Mostly Cloudy 74 23.1 58 14.6 59 59 NE 7 11 30.06 1018 10 16.09344 0 0
3:55 pm 15:55 Cloudy 73 22.7 60 15.4 64 64 NE 6 9 30.06 1018 10 16.09344 0 0
4:15 pm 16:15 Partly Cloudy 74 23.6 58 14.5 57 57 ENE 7 11 30.06 1018 10 16.09344 0 0
4:35 pm 16:35 Sunny 75 23.7 56 13.2 52 52 E 3 6 30.06 1018 10 16.09344 0 0
4:55 pm 16:55 Mostly Cloudy 73 22.9 58 14.2 58 58 ENE 9 15 30.06 1018 10 16.09344 0 0
5:15 pm 17:15 Partly Cloudy 74 23.4 57 13.8 55 55 E 9 15 30.06 1018 10 16.09344 0 0
5:35 pm 17:35 Partly Cloudy 74 23.6 59 15 59 59 ESE 7 11 30.06 1018 10 16.09344 0 0
5:55 pm 17:55 Partly Cloudy 73 22.9 59 14.8 60 60 E 5 7 30.06 1018 10 16.09344 0 0
6:15 pm 18:15 Partly Cloudy 74 23.2 57 13.8 56 56 ENE 7 11 30.06 1018 10 16.09344 0 0
6:35 pm 18:35 Sunny 73 23 58 14.3 58 58 ENE 8 13 30.06 1018 10 16.09344 0 0
6:55 pm 18:55 Sunny 73 22.6 57 14 58 58 E 5 7 30.06 1018 10 16.09344 0 0
7:15 pm 19:15 Sunny 72 22.3 59 14.8 63 63 E 6 9 30.06 1018 10 16.09344 0 0
7:35 pm 19:35 Sunny 71 21.7 60 15.3 67 67 E 5 7 30.06 1018 10 16.09344 0 0
7:55 pm 19:55 Sunny 70 21 60 15.6 71 71 E 3 6 30.06 1018 10 16.09344 0 0
8:15 pm 20:15 Sunny 68 20.2 60 15.7 75 75 E 5 7 30.09 1019 10 16.09344 0 0
8:35 pm 20:35 Sunny 68 19.8 60 15.7 77 77 ESE 3 6 30.09 1019 10 16.09344 0 0
8:55 pm 20:55 Clear 65 18.6 61 16 85 85 SE 3 6 30.09 1019 10 16.09344 0 0
9:15 pm 21:15 Clear 64 18 60 15.6 86 86 SE 3 6 30.12 1020 10 16.09344 0 0
9:35 pm 21:35 Clear 64 17.8 60 15.8 88 88 E 5 7 30.12 1020 10 16.09344 0 0
9:55 pm 21:55 Clear 64 18 59 15.1 83 83 E 6 9 30.12 1020 10 16.09344 0 0
10:15 pm 22:15 Clear 63 17.3 58 14.7 85 85 E 5 7 30.15 1021 10 16.09344 0 0
10:35 pm 22:35 Clear 62 16.7 58 14.7 88 88 E 7 11 30.18 1022 10 16.09344 0 0
10:55 pm 22:55 Clear 63 17 58 14.6 86 86 E 6 9 30.18 1022 10 16.09344 0 0
11:15 pm 23:15 Clear 61 16 57 14.1 89 89 E 6 9 30.18 1022 10 16.09344 0 0
11:35 pm 23:35 Clear 62 16.5 58 14.6 89 89 ESE 3 6 30.18 1022 10 16.09344 0 0
11:55 pm 23:55 Clear 61 15.9 57 14 89 89 ESE 3 6 30.18 1022 10 16.09344 0 0

Powered by AerisWeather